Location: Drocourt
(49.0571°N, 1.7669°E)
Time: 09:07:44
(UTC+00:00)

Okean O Rocket - Pass Details

Date: 09 February 2023
Orbit: 620 x 643 km, 98.1° (Epoch: 22 March)

Event Time Altitude Azimuth Distance (km) Brightness Sun altitude
Rises 19:45:24 0° 191° (S) 2,918 5.0 -27.0°
Reaches altitude 10° 19:47:47 10° 202° (SSW) 2,019 4.3 -27.4°
Maximum altitude 19:51:41 31° 264° (W) 1,135 3.4 -28.0°
Drops below altitude 10° 19:55:39 10° 327° (NNW) 2,045 4.7 -28.6°
Sets 19:58:05 0° 338° (NNW) 2,962 5.5 -29.0°
